ATLAS 5 CENTAUR DEB, 43983

Orbit data source: Space-Track

ATLAS 5 CENTAUR DEB, 43983 is space debris in HEO originally from a launch on Wed, 17 Sep 2014 UTC launched from the Air Force Eastern Test Range (AFETR). Debris objects in space refer to the collection of defunct objects orbiting the Earth. Examples of debris include non-operational satellites, rocket bodies, and fragments generated from explosions, collisions, or faulty payload assembly.

Loading next visibility...
Identifier
43983, 2014-055AN
Orbit
HEO
Country
Flag of USUS
Related business
Flag of USUnited Launch Alliance/Lockheed Martin (US)
Manufacturer
Unknown
Mission
Spacecraft
Bus & Motor
Unknown
Mass
Unknown
Launch date (UTC)
2014-09-17 (11 years ago)
Launch vehicle
Unknown
Launch site
Air Force Eastern Test Range (AFETR)
Object type
Payload
Rocket body
Debris
Shape & HBR
Unknown
Radar Cross Section
Small (<0.1 m²)

Expand to show TLE details & history
Last TLE update: 3 days ago

TLE from 3 days ago
0 ATLAS 5 CENTAUR DEB
1 43983U 14055AN  25256.38537109 -.00000097  00000-0  00000-0 0  9995
2 43983  20.3283 144.2350 4926522 162.9750 222.3685  1.90080622 48734
Epoch: 2025-09-13T09:14Z
TLE epoch observation values (Epoch: 2025-09-13T09:14:56.062Z)
Latitude
0.00002°
Longitude
12.8935°
Altitude
33,046.705 km
Speed
2.396 km/s
True Right ascension
09h 36m 59s
True Declination
0° 00' 00"
Sunlit
Object was in daylight at epoch
Visualization orbit readout
Latitude
Unknown
Longitude
Unknown
Altitude
Unknown
Speed
Unknown
Apparent Right ascension
Unknown
Apparent Declination
Unknown
Sunlit
N/A
Visualization observer readout
Local Sidereal Time
17:08:51
Azimuth
Unknown
Elevation
Unknown
Doppler factor
Unknown
Orbital elements
Apogee altitude
34,714.77 km
Perigee altitude
7,589.213 km
Semi-major axis
27,530.129 km
Eccentricity
0.49265
Inclination
20.3283°
RAAN
144.235°
Arg. of periapsis
162.975°
True anomaly
197.01417°
Mean anomaly
222.3685°
Eccentric anomaly
208.77911°
Mean motion
0.47515 °/min
Orbital period
757.66 mins
BSTAR
0
Loading maneuver chart data...
Computing Atmospheric mass density...
Loading historical data...
Loading historical data...
Loading historical data...
Loading historical data...
Loading historical data...
Loading historical data...
Loading historical data...

Documentation

Showing up to 5 results
|